COSMOS 1275 DEB

Satellite information

Favourite Embed

Satellite Type and Status

DEBRISIN ORBIT

Key statistics

Satellite COSMOS 1275 DEB at a glance.

Uptime

16263

Days in orbit

Revolutions

≈ 14.0

Per day

Orbit

LEO

Low Earth Orbit

Inclination

83.1

Latest

Satellite identification and parameters

Extended collection of information and parameters for COSMOS 1275 DEB.

Object identification

Identified? True

Debris? True

Object name: COSMOS 1275 DEB

International designator: 1981-053MP

Object number (NORAD): 27734

Object ID (CCSDS): 27734

Country: COMMONWEALTH OF INDEPENDENT STATES (CIS)

Current information (Y/N): Y

RCS size: SMALL

Orbital parameters

Period: 102.607 minutes

Inclination: 83.1169 deg

SMA: 7260.121 km

Apoapsis: 951.731 km

Periapsis: 812.241 km

RAAN: 211.5252 deg

Eccentricy: 0.00960656

Argument of periapsis: 155.0723 deg

Mean anomaly: 205.5136 deg

Mean motion: 14.03417857 rev/day

Mean motion (dot): 0.00002149 rev/day2

B* drag term: 0.0013091329 1/REarth

Two-line elements (TLE)

Creation date: Dec. 11, 2025, 7:14 p.m.

Reference frame: TEME

Reference center: EARTH

Epoch: Dec. 11, 2025, 2:11 p.m. UTC

TLE line 0: 0 COSMOS 1275 DEB

TLE line 1: 1 27734U 81053MP 25345.59155779 .00002149 00000-0 13091-2 0 9999

TLE line 2: 2 27734 83.1169 211.5252 0096066 155.0723 205.5136 14.03417857530078

Live tracking on map

Real-time ground track for satellite COSMOS 1275 DEB.

In-orbit conjunctions

A list of the most updated potential collisions computed for object COSMOS 1275 DEB.

Target Orbit TCA Probability of collision Miss distance Type
NOAA 11 SSO 2025-10-24 11:03:16 0.0001556553 953.0 (m) PAYLOAD
COSMOS 2322 LEO 2025-09-30 03:45:50 0.0002359881 655.0 (m) PAYLOAD
COSMOS 1372 LEO 2025-02-14 08:34:50 0.0004195071 173.0 (m) PAYLOAD
COSMOS 1816 LEO 2024-06-19 13:50:18 0.001753284 271.0 (m) PAYLOAD

Associated space launch

Navigation satellite providing location information for the Tsiklon-B navigation system

COSMOS 1275 DEB was lifted into orbit during the mission ‘Kosmos-3M | Parus 27’, on board a Kosmos-3M space rocket.

The launch took place on June 4, 1981, 3:41 p.m. from 132/2.

For more information about the launch, click the button.

Launch to space Kosmos-3M | Parus 27
Kosmos-3M | Parus 27

Agency: N/A

Status: Launch Successful

Launch date: June 4, 1981, 3:41 p.m. UTC

Rocket: Kosmos-3M

Launch pad: 132/2

Location: Plesetsk Cosmodrome, Russian Federation

...

Latest news about this satellite

There are no fresh news available about this satellite. Check back as we update our databases every day.


Newsletter sign-up

Weekly statistics, charts and insights to help you stay on top of the space industry.